When you browse on this site, cookies collect data to enhance your experience and personalize the content and advertising you see.
Visit our Privacy Policy to learn more. By continuing to use the site, you agree to this use of cookies and data.
  • In Czech Republic
  • List of Countries
  • For 7 days
  • Water Temperature
  • Satellite Maps
  • Weather Map
  • Weather Widgets
  • user-avatar
    Login

    Hourly Weather Carmen

    Today, 25 March, Monday

    Time Temperature Precipitation Wind Pressure Humidity
    00:00 +27°C° 0 mm 6 mps 761 mmHg 74%
    01:00 +26°C° 0 mm 6 mps 761 mmHg 75%
    02:00 +25°C° 0 mm 5 mps 761 mmHg 75%
    03:00 +25°C° 0 mm 5 mps 760 mmHg 76%
    04:00 +23°C° 0 mm 5 mps 761 mmHg 78%
    05:00 +23°C° 0 mm 4 mps 761 mmHg 79%
    06:00 +22°C° 0 mm 4 mps 761 mmHg 81%
    07:00 +25°C° 0 mm 4 mps 761 mmHg 74%
    08:00 +27°C° 0 mm 4 mps 762 mmHg 67%
    09:00 +28°C° 0 mm 4 mps 762 mmHg 60%
    10:00 +30°C° 0 mm 3 mps 762 mmHg 54%
    11:00 +33°C° 0 mm 3 mps 762 mmHg 47%
    12:00 +35°C° 0 mm 2 mps 762 mmHg 40%
    13:00 +36°C° 0 mm 2 mps 761 mmHg 37%
    14:00 +36°C° 0 mm 2 mps 760 mmHg 34%
    15:00 +37°C° 0 mm 3 mps 759 mmHg 30%
    16:00 +35°C° 0 mm 4 mps 759 mmHg 40%
    17:00 +32°C° 0 mm 4 mps 759 mmHg 50%
    18:00 +29°C° 0 mm 5 mps 759 mmHg 60%
    19:00 +28°C° 0 mm 6 mps 760 mmHg 66%
    20:00 +28°C° 0 mm 6 mps 761 mmHg 72%
    21:00 +27°C° 0 mm 6 mps 761 mmHg 77%
    22:00 +27°C° 0 mm 6 mps 762 mmHg 77%
    23:00 +27°C° 0 mm 7 mps 762 mmHg 77%

    Tomorrow, 26 March, Tuesday

    Time Temperature Precipitation Wind Pressure Humidity
    00:00 +27°C° 0 mm 7 mps 762 mmHg 76%
    01:00 +27°C° 0 mm 6 mps 762 mmHg 79%
    02:00 +26°C° 0 mm 6 mps 761 mmHg 82%
    03:00 +26°C° 0 mm 5 mps 761 mmHg 84%
    04:00 +25°C° 0.1 mm 4 mps 761 mmHg 87%
    05:00 +25°C° 0.1 mm 4 mps 761 mmHg 90%
    06:00 +24°C° 0.1 mm 3 mps 761 mmHg 93%
    07:00 +26°C° 0 mm 3 mps 762 mmHg 83%
    08:00 +28°C° 0 mm 3 mps 763 mmHg 74%
    09:00 +30°C° 0 mm 3 mps 763 mmHg 65%
    10:00 +32°C° 0 mm 2 mps 763 mmHg 58%
    11:00 +34°C° 0 mm 2 mps 763 mmHg 51%
    12:00 +35°C° 0 mm 1 mps 762 mmHg 44%
    13:00 +36°C° 0 mm 3 mps 762 mmHg 44%
    14:00 +35°C° 0 mm 5 mps 761 mmHg 43%
    15:00 +35°C° 0 mm 6 mps 760 mmHg 42%
    16:00 +33°C° 0 mm 7 mps 760 mmHg 54%
    17:00 +30°C° 0 mm 7 mps 761 mmHg 65%
    18:00 +28°C° 0 mm 8 mps 761 mmHg 76%
    19:00 +28°C° 0 mm 8 mps 762 mmHg 76%
    20:00 +27°C° 0 mm 8 mps 762 mmHg 77%
    21:00 +27°C° 0 mm 9 mps 763 mmHg 77%
    22:00 +27°C° 0 mm 9 mps 763 mmHg 78%
    23:00 +27°C° 0 mm 9 mps 764 mmHg 78%

    Day after tomorrow, 27 March, Wednesday

    Time Temperature Precipitation Wind Pressure Humidity
    00:00 +27°C° 0 mm 9 mps 764 mmHg 78%
    01:00 +27°C° 0.1 mm 8 mps 763 mmHg 79%
    02:00 +26°C° 0.1 mm 8 mps 763 mmHg 80%
    03:00 +26°C° 0.1 mm 7 mps 763 mmHg 81%
    04:00 +24°C° 0.1 mm 7 mps 763 mmHg 84%
    05:00 +24°C° 0.1 mm 6 mps 763 mmHg 86%
    06:00 +24°C° 0.1 mm 6 mps 763 mmHg 89%
    07:00 +26°C° 0 mm 6 mps 764 mmHg 82%
    08:00 +27°C° 0 mm 6 mps 765 mmHg 74%
    09:00 +28°C° 0 mm 6 mps 765 mmHg 67%
    10:00 +29°C° 0 mm 5 mps 765 mmHg 61%
    11:00 +30°C° 0 mm 5 mps 765 mmHg 55%
    12:00 +32°C° 0 mm 5 mps 764 mmHg 49%
    13:00 +32°C° 0 mm 6 mps 764 mmHg 49%
    14:00 +32°C° 0 mm 6 mps 763 mmHg 50%
    15:00 +32°C° 0 mm 7 mps 762 mmHg 50%
    16:00 +29°C° 0 mm 7 mps 762 mmHg 57%
    17:00 +28°C° 0 mm 7 mps 762 mmHg 64%
    18:00 +27°C° 0 mm 7 mps 762 mmHg 72%
    19:00 +27°C° 0 mm 8 mps 763 mmHg 73%
    20:00 +26°C° 0 mm 8 mps 763 mmHg 74%
    21:00 +26°C° 0 mm 8 mps 764 mmHg 75%
    22:00 +26°C° 0 mm 8 mps 764 mmHg 72%
    23:00 +26°C° 0 mm 7 mps 764 mmHg 70%

    28 March, Thursday

    Time Temperature Precipitation Wind Pressure Humidity
    00:00 +26°C° 0 mm 7 mps 764 mmHg 68%
    01:00 +24°C° 0 mm 7 mps 764 mmHg 69%
    02:00 +24°C° 0 mm 7 mps 763 mmHg 71%
    03:00 +24°C° 0 mm 6 mps 763 mmHg 72%
    04:00 +23°C° 0 mm 6 mps 763 mmHg 72%
    05:00 +23°C° 0 mm 6 mps 764 mmHg 72%
    06:00 +23°C° 0 mm 6 mps 764 mmHg 71%
    07:00 +24°C° 0 mm 6 mps 764 mmHg 69%
    08:00 +25°C° 0 mm 5 mps 765 mmHg 66%
    09:00 +26°C° 0 mm 5 mps 766 mmHg 64%
    10:00 +28°C° 0 mm 4 mps 765 mmHg 60%
    11:00 +29°C° 0 mm 3 mps 764 mmHg 55%
    12:00 +31°C° 0 mm 2 mps 764 mmHg 51%
    13:00 +31°C° 0 mm 3 mps 763 mmHg 50%
    14:00 +32°C° 0 mm 4 mps 762 mmHg 49%
    15:00 +33°C° 0 mm 5 mps 761 mmHg 48%
    16:00 +30°C° 0 mm 5 mps 761 mmHg 56%
    17:00 +28°C° 0 mm 6 mps 761 mmHg 63%
    18:00 +27°C° 0 mm 6 mps 762 mmHg 70%
    19:00 +26°C° 0 mm 6 mps 762 mmHg 72%
    20:00 +26°C° 0 mm 6 mps 762 mmHg 74%
    21:00 +24°C° 0 mm 6 mps 763 mmHg 76%
    22:00 +24°C° 0 mm 6 mps 763 mmHg 77%
    23:00 +24°C° 0 mm 6 mps 763 mmHg 77%

    29 March, Friday

    Time Temperature Precipitation Wind Pressure Humidity
    00:00 +24°C° 0 mm 6 mps 762 mmHg 78%
    01:00 +25°C° 0 mm 5 mps 762 mmHg 80%
    02:00 +23°C° 0 mm 5 mps 761 mmHg 82%
    03:00 +23°C° 0 mm 5 mps 761 mmHg 84%
    04:00 +22°C° 0 mm 5 mps 761 mmHg 84%
    05:00 +22°C° 0 mm 6 mps 761 mmHg 84%
    06:00 +21°C° 0 mm 6 mps 762 mmHg 85%
    07:00 +23°C° 0 mm 6 mps 762 mmHg 78%
    08:00 +26°C° 0 mm 6 mps 762 mmHg 71%
    09:00 +28°C° 0 mm 6 mps 763 mmHg 64%
    10:00 +29°C° 0 mm 5 mps 762 mmHg 59%
    11:00 +32°C° 0 mm 4 mps 761 mmHg 54%
    12:00 +33°C° 0 mm 3 mps 761 mmHg 49%
    13:00 +34°C° 0 mm 3 mps 760 mmHg 46%
    14:00 +35°C° 0 mm 3 mps 759 mmHg 43%
    15:00 +35°C° 0 mm 3 mps 758 mmHg 40%
    16:00 +33°C° 0 mm 4 mps 758 mmHg 48%
    17:00 +32°C° 0 mm 5 mps 758 mmHg 57%
    18:00 +29°C° 0 mm 5 mps 758 mmHg 65%
    19:00 +28°C° 0 mm 5 mps 758 mmHg 69%
    20:00 +27°C° 0 mm 5 mps 759 mmHg 73%
    21:00 +26°C° 0 mm 6 mps 759 mmHg 77%
    22:00 +26°C° 0 mm 6 mps 759 mmHg 76%
    23:00 +26°C° 0 mm 6 mps 759 mmHg 75%

    30 March, Saturday

    Time Temperature Precipitation Wind Pressure Humidity
    00:00 +27°C° 0 mm 6 mps 758 mmHg 75%
    01:00 +26°C° 0 mm 6 mps 758 mmHg 73%
    02:00 +26°C° 0 mm 7 mps 758 mmHg 71%
    03:00 +24°C° 0 mm 8 mps 757 mmHg 69%
    04:00 +24°C° 0 mm 8 mps 758 mmHg 69%
    05:00 +24°C° 0 mm 8 mps 758 mmHg 70%
    06:00 +23°C° 0 mm 8 mps 758 mmHg 70%
    07:00 +26°C° 0 mm 8 mps 759 mmHg 65%
    08:00 +27°C° 0 mm 7 mps 759 mmHg 61%
    09:00 +28°C° 0 mm 7 mps 759 mmHg 56%
    10:00 +30°C° 0 mm 6 mps 759 mmHg 50%
    11:00 +33°C° 0 mm 5 mps 758 mmHg 45%
    12:00 +35°C° 0 mm 4 mps 758 mmHg 39%
    13:00 +36°C° 0 mm 4 mps 757 mmHg 37%
    14:00 +36°C° 0 mm 4 mps 756 mmHg 36%
    15:00 +37°C° 0 mm 4 mps 755 mmHg 34%
    16:00 +35°C° 0 mm 4 mps 755 mmHg 42%
    17:00 +33°C° 0 mm 5 mps 756 mmHg 50%
    18:00 +30°C° 0 mm 5 mps 756 mmHg 59%
    19:00 +29°C° 0 mm 5 mps 756 mmHg 64%
    20:00 +28°C° 0 mm 6 mps 757 mmHg 68%
    21:00 +27°C° 0 mm 6 mps 758 mmHg 73%
    22:00 +27°C° 0 mm 6 mps 758 mmHg 74%
    23:00 +28°C° 0 mm 6 mps 758 mmHg 75%
    Show more